Regional Weather Roundup
Issued by NWS

Home | Current Version | Previous Version | Text Only | Print | Product List | Glossary On
Versions: 1 2 3 4 5 6 7 8 9 10 11 12 13 14 15 16 17 18 19 20 21 22 23 24 25 26 27 28 29 30 31 32 33 34 35 36 37 38 39 40 41 42 43 44 45 46 47 48 49 50
000
ASUS46 KSTO 260615
RWRCA

NORTHERN AND CENTRAL CA REGIONAL WEATHER ROUNDUP
NATIONAL WEATHER SERVICE SACRAMENTO CA
1100 PM PDT THU MAY 25 2017

NOTE: FAIR INDICATES FEW OR NO CLOUDS BELOW 12,000 FEET WITH NO
SIGNIFICANT WEATHER AND/OR OBSTRUCTIONS TO VISIBILITY.

CAZ001-003-260700-
NORTHWEST AREA

CITY           SKY/WX    TMP DP  RH WIND       PRES   REMARKS
CRESCENT CITY  CLOUDY    51  48  89 S21G28    29.82R
UKIAH          CLOUDY    59  49  69 SE3       29.83R
$$

CAZ006-505>513-260700-
BAY AREA

CITY           SKY/WX    TMP DP  RH WIND       PRES   REMARKS
SANTA ROSA     CLOUDY    55  48  77 SW6       29.86R
SAN RAFAEL     N/A       54  MM  MM MISG
NAPA           CLEAR     56  48  74 W9        29.86R
CONCORD        CLEAR     56  49  77 W7        29.85R
OAKLAND CITY   N/A      MM  MM  MM MISG
OAKLAND        CLOUDY    60  49  66 SW13      29.87R
SAN FRAN CITY  N/A       55  MM  74 MISG
SAN FRAN ARPT  PTCLDY    57  46  66 SW14      29.86R
LIVERMORE      CLEAR     57  48  72 W13       29.84R
HAYWARD        CLOUDY    60  46  59 SW8       29.85R
REDWOOD CITY   N/A       56  MM  73 MISG
MOFFETT ARPT   CLEAR     57  48  72 SE7       29.86R
SAN JOSE ARPT  MOCLDY    58  49  72 S14       29.86R
$$
CAZ034-037-514>518-260700-
CENTRAL COAST

CITY           SKY/WX    TMP DP  RH WIND       PRES   REMARKS
WATSONVILLE    CLOUDY    55  51  86 W5        29.89R
SALINAS        CLOUDY    58  50  75 W9        29.88R
MONTEREY       CLOUDY    55  51  86 SW10      29.88R
SAN LUIS OBISP CLOUDY    58  53  84 S5        29.90R
SANTA MARIA    CLOUDY    56  53  90 SW6       29.91R
$$
CAZ015-016-260700-
NORTHERN SACRAMENTO VALLEY

CITY           SKY/WX    TMP DP  RH WIND       PRES   REMARKS
REDDING        CLOUDY    68  51  54 CALM      29.78R
RED BLUFF      CLEAR     64  52  64 S5        29.78R
OROVILLE       CLEAR     64  48  56 SE14      29.80R
$$
CAZ016>018-260700-
SOUTHERN SACRAMENTO VALLEY

CITY           SKY/WX    TMP DP  RH WIND       PRES   REMARKS
AUBURN         CLEAR     57  48  72 SE5       29.83R
BEALE AFB      CLEAR     58  49  71 SE8       29.79R
LINCOLN        FAIR      55  45  67 S8        29.80R
MARYSVILLE     CLEAR     59  48  67 SE13      29.80R
SAC INTL ARPT  CLEAR     57  50  77 S8        29.79R
MATHER AIRPORT CLEAR     55  48  76 S7        29.82R
DOWNTOWN SAC   N/A       57  MM  MM MISG
SAC EXEC ARPT  CLEAR     56  49  77 SW10      29.81R
VACAVILLE      CLEAR     58  49  72 S9        29.81R
TRAVIS AFB     CLEAR     55  47  73 W21G28    29.80R
$$
CAZ019>021-260700-
SAN JOAQUIN VALLEY

CITY           SKY/WX    TMP DP  RH WIND       PRES   REMARKS
STOCKTON       CLEAR     59  50  72 N10       29.82R
MODESTO        CLEAR     63  51  65 NW9       29.81R
MERCED         CLEAR     59  49  69 NW9       29.80R
LEMOORE        CLEAR     60  44  55 W8        29.80R
FRESNO         CLEAR     63  49  60 NW16      29.79R
HANFORD        CLEAR     60  49  66 S5        29.79R
PORTERVILLE      N/A     58  48  69 S6        29.84R
BAKERSFIELD    CLEAR     61  48  62 N10       29.82R
$$
CAZ011-012-071-260700-
NORTHERN MOUNTAINS

CITY           SKY/WX    TMP DP  RH WIND       PRES   REMARKS
YREKA          CLEAR     56  36  47 NE12      29.81R
MOUNT SHASTA   CLEAR     55  45  68 CALM      29.85R
ALTURAS        CLOUDY    55  32  41 N6        29.84R
$$
CAZ011-012-071-260700-
SIERRA NEVADA MTNS

CITY           SKY/WX    TMP DP  RH WIND       PRES   REMARKS
BLUE CANYON    CLEAR     49  40  71 SE5       29.91R
TRUCKEE        CLEAR     36  32  87 S5        29.93R WCI  32
TAHOE VLY ARPT CLEAR     44  36  73 CALM      29.92R
MAMMOTH LAKES  FAIR      45  26  48 S3        29.92R
$$



USA.gov is the U.S. government's official web portal to all federal, state and local government web resources and services.